TG6YMD-19 Weather Reports


Display with metric or nautical units.
time (UTC)temp
F
wind
direction
speed
MPH
gust
MPH
rain 1hr
in
rain 24hr
in
rain mn
in
humidity
%
barometer
mb
20260502190548 103 90 9.0 0.0 0.00 0.00 0.00 22 1007.0
20260502185548 101 0 0.0 0.0 0.00 0.00 0.00 24 1007.0
20260502184547 101 0 0.0 0.0 0.00 0.00 0.00 24 1007.0
20260502183546 101 0 0.0 0.0 0.00 0.00 0.00 24 1007.0
20260502182546 101 0 0.0 0.0 0.00 0.00 0.00 24 1009.0
20260502181545 101 0 0.0 0.0 0.00 0.00 0.00 24 1009.0
20260502180545 100 0 0.0 0.0 0.00 0.00 0.00 28 1009.0
20260502163537 96 0 0.0 0.0 0.00 0.00 0.00 34 1010.0
20260502162537 96 0 0.0 0.0 0.00 0.00 0.00 34 1011.0
20260502161536 96 0 0.0 0.0 0.00 0.00 0.00 34 1011.0
20260502160535 96 0 0.0 0.0 0.00 0.00 0.00 34 1011.0
20260502151532 91 0 0.0 0.0 0.00 0.00 0.00 46 1012.0
20260502150532 91 0 0.0 0.0 0.00 0.00 0.00 46 1012.0
20260502130524 80 0 0.0 0.0 0.00 0.00 0.00 69 1012.0
20260502123522 78 0 0.0 0.0 0.00 0.00 0.00 73 1012.0
20260502122521 78 0 0.0 0.0 0.00 0.00 0.00 73 1011.0
20260502121521 78 0 0.0 0.0 0.00 0.00 0.00 73 1011.0
20260502120520 75 227 3.0 6.0 0.00 0.00 0.00 86 1011.0
20260502115519 76 227 3.0 6.0 0.00 0.00 0.00 86 1011.0
20260502114519 77 227 3.0 6.0 0.00 0.00 0.00 86 1011.0
20260502113518 71 227 3.0 6.0 0.00 0.00 0.00 85 1011.0
20260502112518 72 228 3.0 5.0 0.00 0.00 0.00 85 1011.0
20260502111517 70 228 3.0 5.0 0.00 0.00 0.00 83 1011.0
20260502110516 70 228 3.0 5.0 0.00 0.00 0.00 83 1011.0
20260502105516 71 228 3.0 5.0 0.00 0.00 0.00 83 1011.0
20260502104515 71 228 3.0 5.0 0.00 0.00 0.00 83 1011.0
20260502103514 72 228 3.0 5.0 0.00 0.00 0.00 83 1011.0
20260502102514 73 220 3.0 5.0 0.00 0.00 0.00 83 1010.0
20260502101513 74 220 3.0 5.0 0.00 0.00 0.00 83 1010.0
20260502100513 75 220 3.0 5.0 0.00 0.00 0.00 83 1010.0
20260502091509 74 224 3.0 5.0 0.00 0.00 0.00 79 1010.0
20260502090509 75 224 3.0 5.0 0.00 0.00 0.00 79 1010.0
20260502071502 76 219 3.0 5.0 0.00 0.00 0.00 73 1010.0
20260502070501 74 219 3.0 5.0 0.00 0.00 0.00 72 1010.0
20260502065501 75 219 3.0 5.0 0.00 0.00 0.00 72 1010.0
20260502064500 75 219 3.0 5.0 0.00 0.00 0.00 72 1010.0
20260502063459 76 219 3.0 5.0 0.00 0.00 0.00 72 1010.0
20260502062459 77 210 3.0 4.0 0.00 0.00 0.00 72 1010.0
20260502061458 75 210 3.0 4.0 0.00 0.00 0.00 71 1010.0
20260502060457 76 210 3.0 4.0 0.00 0.00 0.00 71 1010.0
20260502055457 77 210 3.0 4.0 0.00 0.00 0.00 71 1010.0
20260502054456 75 210 3.0 4.0 0.00 0.00 0.00 70 1010.0
20260502053455 76 210 3.0 4.0 0.00 0.00 0.00 70 1010.0
20260502052455 77 217 2.0 3.0 0.00 0.00 0.00 70 1010.0
20260502051454 78 217 2.0 3.0 0.00 0.00 0.00 70 1010.0
20260502050453 79 217 2.0 3.0 0.00 0.00 0.00 70 1010.0
20260502045453 80 217 2.0 3.0 0.00 0.00 0.00 70 1010.0
20260502044452 81 217 2.0 3.0 0.00 0.00 0.00 70 1010.0
20260502043451 76 217 2.0 3.0 0.00 0.00 0.00 69 1010.0
20260502042451 77 193 1.0 2.0 0.00 0.00 0.00 69 1010.0
20260502041450 78 193 1.0 2.0 0.00 0.00 0.00 69 1010.0
20260502040449 79 193 1.0 2.0 0.00 0.00 0.00 69 1010.0
20260502035449 80 193 1.0 2.0 0.00 0.00 0.00 69 1010.0
20260502034448 80 193 1.0 2.0 0.00 0.00 0.00 69 1010.0
20260502033448 81 193 1.0 2.0 0.00 0.00 0.00 69 1010.0
20260502032447 78 92 1.0 2.0 0.00 0.00 0.00 67 1009.0
20260502031446 78 92 1.0 2.0 0.00 0.00 0.00 67 1009.0
20260502030446 79 92 1.0 2.0 0.00 0.00 0.00 67 1009.0
20260502025445 80 92 1.0 2.0 0.00 0.00 0.00 67 1009.0
20260502024444 81 92 1.0 2.0 0.00 0.00 0.00 67 1009.0
20260502023444 82 92 1.0 2.0 0.00 0.00 0.00 67 1009.0
20260502022443 83 84 1.0 3.0 0.00 0.00 0.00 67 1008.0
20260502021442 80 84 1.0 3.0 0.00 0.00 0.00 58 1008.0
20260502020442 81 84 1.0 3.0 0.00 0.00 0.00 58 1008.0
20260502015441 82 84 1.0 3.0 0.00 0.00 0.00 58 1008.0
20260502014440 83 84 1.0 3.0 0.00 0.00 0.00 58 1008.0
20260502013440 84 84 1.0 3.0 0.00 0.00 0.00 58 1008.0
20260502012439 85 89 2.0 3.0 0.00 0.00 0.00 58 1007.0
20260502011438 86 89 2.0 3.0 0.00 0.00 0.00 58 1007.0
20260502010438 96 90 9.0 0.0 0.00 0.00 0.00 32 1007.0
20260502005437 96 90 9.0 0.0 0.00 0.00 0.00 32 1007.0
20260502004436 96 90 9.0 0.0 0.00 0.00 0.00 32 1007.0
20260502003436 96 90 9.0 0.0 0.00 0.00 0.00 32 1007.0
20260502002435 96 90 9.0 0.0 0.00 0.00 0.00 32 1006.0
20260502001435 96 90 9.0 0.0 0.00 0.00 0.00 32 1006.0
20260502000434 96 90 9.0 0.0 0.00 0.00 0.00 32 1006.0
20260501235433 90 122 3.0 4.0 0.00 0.00 0.00 42 1006.0
20260501234433 91 122 3.0 4.0 0.00 0.00 0.00 42 1006.0
20260501233432 92 122 3.0 4.0 0.00 0.00 0.00 42 1006.0
20260501232431 93 175 6.0 7.0 0.00 0.00 0.00 42 1004.0
20260501231431 105 180 6.0 0.0 0.00 0.00 0.00 22 1004.0
20260501230430 105 180 6.0 0.0 0.00 0.00 0.00 22 1004.0
20260501225430 105 180 6.0 0.0 0.00 0.00 0.00 22 1004.0
20260501224429 105 180 6.0 0.0 0.00 0.00 0.00 22 1004.0
20260501223428 105 180 6.0 0.0 0.00 0.00 0.00 22 1004.0
20260501222428 105 180 6.0 0.0 0.00 0.00 0.00 22 1004.0
20260501221427 105 180 6.0 0.0 0.00 0.00 0.00 22 1004.0
20260501220426 105 90 6.0 0.0 0.00 0.00 0.00 22 1004.0
20260501215426 105 90 6.0 0.0 0.00 0.00 0.00 22 1003.0
20260501214425 105 90 6.0 0.0 0.00 0.00 0.00 22 1003.0
20260501213425 105 90 6.0 0.0 0.00 0.00 0.00 22 1003.0
20260501212424 105 90 6.0 0.0 0.00 0.00 0.00 22 1004.0
20260501211423 105 90 6.0 0.0 0.00 0.00 0.00 22 1004.0
20260501210423 105 90 6.0 0.0 0.00 0.00 0.00 22 1004.0
20260501205422 103 30 9.0 0.0 0.00 0.00 0.00 22 1004.0
20260501204421 103 30 9.0 0.0 0.00 0.00 0.00 22 1004.0
20260501203421 103 30 9.0 0.0 0.00 0.00 0.00 22 1004.0
20260501202420 103 30 9.0 0.0 0.00 0.00 0.00 22 1005.0
20260501201419 103 30 9.0 0.0 0.00 0.00 0.00 22 1005.0
20260501200419 103 30 9.0 0.0 0.00 0.00 0.00 22 1005.0
20260501195418 100 350 6.0 0.0 0.00 0.00 0.00 30 1005.0
20260501194418 100 350 6.0 0.0 0.00 0.00 0.00 30 1005.0
20260501193417 100 350 6.0 0.0 0.00 0.00 0.00 30 1005.0
20260501192416 100 350 6.0 0.0 0.00 0.00 0.00 30 1006.0
20260501191416 100 350 6.0 0.0 0.00 0.00 0.00 30 1006.0